Weather History for Arctic Village, AK

Change the Weather History Date:

Sunday, July 21, 2013

  Actual Average Record
Temperature  
Mean Temperature 58 °F -  
Max Temperature 64 °F 69 °F 78 °F (1990)
Min Temperature 51 °F 47 °F 40 °F (1988)
Degree Days  
Heating Degree Days 8    
Growing Degree Days 8 (Base 50)    
Moisture  
Dew Point 49 °F    
Average Humidity 78    
Maximum Humidity 100    
Minimum Humidity 49    
Precipitation  
Precipitation 0.01 in - - ()
Sea Level Pressure  
Sea Level Pressure 30.07 in    
Wind  
Wind Speed 6 mph (NNE)    
Max Wind Speed 10 mph    
Max Gust Speed -    
Visibility 9 miles    
Events      
Averages and records for this station are not official NWS values.
T = Trace of Precipitation, MM = Missing Value Source: NWS Daily Summary

Daily Weather History Graph

Daily Weather History Graph

Search for Another Location

Airport:

Trip Planner

Search our weather history database for the weather conditions in past years. The results will help you decide how hot, cold, wet, or windy it might be!

Date:

Astronomy

Jul. 21, 2013 Rise Set
Actual Time 2:47 AM AKDT 12:42 AM AKDT
Civil Twilight Sun does not rise Sun does not rise
Nautical Twilight Sun does not rise Sun does not rise
Astronomical Twilight Sun does not rise Sun does not rise
Moon 10:36 PM AKDT (7/21) 2:30 AM AKDT (7/21)
Length of Visible Light 24h 00m
Length of Day
21h 54m
Waxing Gibbous, 99% of the Moon is Illuminated
Jul 21
Waxing Gibbous
Jul 22
Full
Jul 29
Last Quarter
Aug 6
New
Aug 14
First Quarter

Hourly Weather History & Observations

Time (AKDT) Temp. Dew Point Humidity Pressure Visibility Wind Dir Wind Speed Gust Speed Precip Events Conditions
12:16 AM 53.6 °F 51.8 °F 94% 30.02 in 10.0 mi ENE 8.1 mph - N/A   Overcast
12:36 AM 51.8 °F 50.0 °F 94% 30.03 in 9.0 mi ENE 9.2 mph - 0.01 in   Overcast
12:56 AM 51.8 °F 50.0 °F 94% 30.03 in 10.0 mi NE 6.9 mph - 0.01 in   Overcast
1:16 AM 51.8 °F 50.0 °F 94% 30.03 in 10.0 mi North 5.8 mph - N/A   Overcast
1:36 AM 51.8 °F 48.2 °F 88% 30.03 in 10.0 mi NNE 4.6 mph - N/A   Overcast
1:56 AM 51.8 °F 50.0 °F 94% 30.03 in 10.0 mi North 6.9 mph - N/A   Overcast
2:16 AM 51.8 °F 50.0 °F 94% 30.04 in 10.0 mi NNE 6.9 mph - N/A   Overcast
2:36 AM 51.8 °F 50.0 °F 94% 30.04 in 10.0 mi North 6.9 mph - N/A   Overcast
2:56 AM 51.8 °F 48.2 °F 88% 30.04 in 10.0 mi NNE 3.5 mph - N/A   Overcast
3:16 AM 51.8 °F 48.2 °F 88% 30.04 in 10.0 mi NE 3.5 mph - N/A   Overcast
3:36 AM 51.8 °F 48.2 °F 88% 30.04 in 10.0 mi North 5.8 mph - N/A   Overcast
3:56 AM 51.8 °F 48.2 °F 88% 30.04 in 10.0 mi NNE 4.6 mph - N/A   Overcast
4:16 AM 51.8 °F 48.2 °F 88% 30.04 in 10.0 mi NE 6.9 mph - N/A   Overcast
4:36 AM 51.8 °F 50.0 °F 94% 30.04 in 5.0 mi NE 6.9 mph - N/A   Overcast
4:56 AM 51.8 °F 50.0 °F 94% 30.05 in 4.0 mi NE 5.8 mph - N/A   Overcast
5:16 AM 51.8 °F 50.0 °F 94% 30.05 in 4.0 mi NE 5.8 mph - N/A   Overcast
5:36 AM 51.8 °F 50.0 °F 94% 30.05 in 10.0 mi North 5.8 mph - N/A   Overcast
5:56 AM 51.8 °F 50.0 °F 94% 30.05 in 10.0 mi North 5.8 mph - N/A   Overcast
6:16 AM 51.8 °F 50.0 °F 94% 30.06 in 10.0 mi North 4.6 mph - N/A   Overcast
6:36 AM 51.8 °F 48.2 °F 88% 30.06 in 10.0 mi NNE 5.8 mph - N/A   Overcast
6:56 AM 51.8 °F 50.0 °F 94% 30.06 in 3.0 mi NNE 5.8 mph - N/A   Overcast
7:16 AM 51.8 °F 50.0 °F 94% 30.06 in 3.0 mi NNE 5.8 mph - N/A   Overcast
7:36 AM 51.8 °F 50.0 °F 94% 30.06 in 5.0 mi NNE 6.9 mph - N/A   Overcast
7:56 AM 51.8 °F 50.0 °F 94% 30.06 in 3.0 mi NNE 5.8 mph - N/A   Overcast
8:16 AM 51.8 °F 51.8 °F 100% 30.06 in 2.5 mi North 3.5 mph - N/A   Overcast
8:36 AM 51.8 °F 51.8 °F 100% 30.06 in 5.0 mi North 4.6 mph - N/A   Overcast
8:56 AM 51.8 °F 51.8 °F 100% 30.07 in 4.0 mi NNE 5.8 mph - N/A   Overcast
9:16 AM 51.8 °F 51.8 °F 100% 30.07 in 3.0 mi NNE 4.6 mph - N/A   Overcast
9:36 AM 51.8 °F 50.0 °F 94% 30.08 in 4.0 mi North 6.9 mph - N/A   Overcast
9:56 AM 51.8 °F 50.0 °F 94% 30.08 in 10.0 mi North 6.9 mph - N/A   Overcast
10:16 AM 51.8 °F 50.0 °F 94% 30.08 in 10.0 mi North 5.8 mph - N/A   Overcast
10:36 AM 53.6 °F 51.8 °F 94% 30.08 in 10.0 mi NNE 5.8 mph - N/A   Overcast
10:56 AM 53.6 °F 51.8 °F 94% 30.08 in 10.0 mi North 6.9 mph - N/A   Overcast
11:16 AM 53.6 °F 50.0 °F 88% 30.09 in 10.0 mi North 6.9 mph - N/A   Overcast
11:36 AM 55.4 °F 50.0 °F 82% 30.08 in 10.0 mi North 5.8 mph - N/A   Overcast
11:56 AM 55.4 °F 51.8 °F 88% 30.09 in 10.0 mi NE 4.6 mph - N/A   Overcast
12:16 PM 57.2 °F 51.8 °F 82% 30.09 in 10.0 mi ENE 5.8 mph - N/A   Overcast
12:36 PM 57.2 °F 51.8 °F 82% 30.09 in 10.0 mi NE 3.5 mph - N/A   Overcast
12:56 PM 57.2 °F 48.2 °F 72% 30.09 in 10.0 mi East 3.5 mph - N/A   Mostly Cloudy
1:16 PM 57.2 °F 46.4 °F 67% 30.09 in 10.0 mi Calm Calm - N/A   Overcast
1:36 PM 57.2 °F 46.4 °F 67% 30.09 in 10.0 mi Calm Calm - N/A   Overcast
1:56 PM 59.0 °F 46.4 °F 63% 30.09 in 10.0 mi Calm Calm - N/A   Overcast
2:16 PM 59.0 °F 46.4 °F 63% 30.09 in 10.0 mi Calm Calm - N/A   Mostly Cloudy
2:36 PM 60.8 °F 48.2 °F 63% 30.09 in 10.0 mi Calm Calm - N/A   Mostly Cloudy
2:56 PM 60.8 °F 46.4 °F 59% 30.08 in 10.0 mi Calm Calm - N/A   Partly Cloudy
3:16 PM 60.8 °F 46.4 °F 59% 30.08 in 10.0 mi Calm Calm - N/A   Clear
3:36 PM 62.6 °F 46.4 °F 55% 30.08 in 10.0 mi NE 3.5 mph - N/A   Clear
3:56 PM 62.6 °F 46.4 °F 55% 30.09 in 10.0 mi Calm Calm - N/A   Clear
4:16 PM 62.6 °F 48.2 °F 59% 30.08 in 10.0 mi East 3.5 mph - N/A   Clear
4:36 PM 62.6 °F 46.4 °F 55% 30.09 in 10.0 mi Calm Calm - N/A   Clear
4:56 PM 64.4 °F 46.4 °F 52% 30.08 in 10.0 mi Calm Calm - N/A   Clear
5:16 PM 64.4 °F 44.6 °F 49% 30.08 in 10.0 mi ESE 3.5 mph - N/A   Clear
5:36 PM 64.4 °F 46.4 °F 52% 30.08 in 10.0 mi SE 5.8 mph - N/A   Clear
5:56 PM 64.4 °F 46.4 °F 52% 30.08 in 10.0 mi South 3.5 mph - N/A   Clear
6:16 PM 64.4 °F 46.4 °F 52% 30.08 in 10.0 mi SSW 6.9 mph - N/A   Clear
6:36 PM 64.4 °F 46.4 °F 52% 30.09 in 10.0 mi SW 5.8 mph - N/A   Clear
6:56 PM 62.6 °F 46.4 °F 55% 30.09 in 10.0 mi SW 4.6 mph - N/A   Clear
7:16 PM 62.6 °F 46.4 °F 55% 30.09 in 10.0 mi SSW 4.6 mph - N/A   Clear
7:36 PM 62.6 °F 48.2 °F 59% 30.09 in 10.0 mi SW 4.6 mph - N/A   Scattered Clouds
7:56 PM 62.6 °F 50.0 °F 63% 30.10 in 10.0 mi WSW 3.5 mph - N/A   Overcast
8:16 PM 62.6 °F 51.8 °F 68% 30.10 in 10.0 mi SW 6.9 mph - N/A   Overcast
8:36 PM 62.6 °F 48.2 °F 59% 30.10 in 10.0 mi SW 4.6 mph - N/A   Overcast
8:56 PM 62.6 °F 48.2 °F 59% 30.10 in 10.0 mi SW 8.1 mph - N/A   Scattered Clouds
9:16 PM 62.6 °F 48.2 °F 59% 30.10 in 10.0 mi WSW 10.4 mph - N/A   Scattered Clouds
9:36 PM 62.6 °F 48.2 °F 59% 30.10 in 10.0 mi WSW 10.4 mph - N/A   Overcast
9:56 PM 62.6 °F 50.0 °F 63% 30.10 in 10.0 mi SW 9.2 mph - N/A   Overcast
10:16 PM 62.6 °F 50.0 °F 63% 30.10 in 10.0 mi WSW 8.1 mph - N/A   Scattered Clouds
10:36 PM 60.8 °F 50.0 °F 68% 30.10 in 10.0 mi WSW 9.2 mph - N/A   Clear
10:56 PM 60.8 °F 51.8 °F 72% 30.10 in 10.0 mi WSW 8.1 mph - N/A   Clear
11:16 PM 59.0 °F 50.0 °F 72% 30.10 in 10.0 mi WSW 8.1 mph - N/A   Clear
11:36 PM 57.2 °F 51.8 °F 82% 30.11 in 10.0 mi WSW 9.2 mph - N/A   Clear
11:56 PM 57.2 °F 51.8 °F 82% 30.12 in 10.0 mi WSW 9.2 mph - N/A   Clear